Regional Weather Roundup
Issued by NWS

Home | Current Version | Previous Version | Text Only | Print | Product List | Glossary On
Versions: 1 2 3 4 5 6 7 8 9 10 11 12 13 14 15 16 17 18 19 20 21 22 23 24 25 26 27
000
ASUS45 KSLC 292210
RWRUT

UTAH REGIONAL WEATHER ROUNDUP
NATIONAL WEATHER SERVICE SALT LAKE CITY UT
400 PM MDT WED MAR 29 2017

UTZ001>011-023>025-292300-

NORTHERN UTAH

CITY           SKY/WX    TMP DP  RH WIND       PRES   REMARKS
BRIGHAM CITY   SUNNY     53  30  40 SE3       30.17F
HILL AFB       SUNNY     52  29  41 S5        30.16F
LOGAN          MOSUNNY   55  32  41 W3        30.13F
OGDEN          SUNNY     53  30  41 SW6       30.16F
SALT LAKE CITY MOSUNNY   56  33  42 N7        30.16F
TOOELE VALLEY  SUNNY     54  34  47 N3        30.16F
WENDOVER       SUNNY     56  31  38 E8        30.16F
WEST JORDAN    SUNNY     57  42  57 NW7       30.17F

$$

UTZ011>015-024>027-292300-

CENTRAL/NORTHEAST UTAH

CITY           SKY/WX    TMP DP  RH WIND       PRES   REMARKS
PROVO AIRPORT  SUNNY     53  32  44 W8        30.18F
MOAB/CANYONLAN SUNNY     63  24  22 NE7       30.04F
DELTA          SUNNY     54  30  40 CALM      30.18F
PRICE          SUNNY     58  25  28 S10       30.08F
RICHFIELD      SUNNY     57  32  38 NE6       30.16F
ROOSEVELT      SUNNY     55  28  35 CALM      30.11F
VERNAL         SUNNY     54  27  35 S7        30.09F

$$

UTZ013>016-019>022-027-292300-

SOUTHERN UTAH

CITY           SKY/WX    TMP DP  RH WIND       PRES   REMARKS
BRYCE CANYON   SUNNY     57  21  24 NW18      30.16F
CEDAR CITY     SUNNY     57  30  35 N6        30.15F
MILFORD        SUNNY     57  30  35 N8        30.17F
ST GEORGE      CLEAR     71  28  20 SW9       30.06F
HANKSVILLE     SUNNY     64  18  16 CALM      30.07F
KANAB          SUNNY     68  21  17 SW12      30.12F
BLANDING       SUNNY     60  20  21 NW17G24   30.11F

$$

REGIONAL REPORTS     COLORADO/ARIZONA

CITY           SKY/WX    TMP DP  RH WIND       PRES   REMARKS
CRAIG, CO      MOSUNNY   48  26  42 SW8G18    30.10F
GRAND JUNCTION SUNNY     61  25  25 W6        30.03F
RIFLE, CO      SUNNY     58  23  26 NW5G17    30.05F
MONTROSE, CO   SUNNY     56  26  31 CALM      30.07F
CORTEZ, CO     SUNNY     62  24  23 NW20G25   30.01S
COLORADO CITY    N/A     68  27  21 W13G18    30.15S
PAGE, AZ       SUNNY     67  17  14 VRB5      30.05F
GRAND CANYON   SUNNY     60  15  17 VRB5      30.15F
KINGMAN, AZ    SUNNY     72 -14   3 N3        30.08F
FLAGSTAFF, AZ  SUNNY     59   3  10 VRB5      30.12F

$$

REGIONAL REPORTS    NEVADA/IDAHO/WYOMING

CITY           SKY/WX    TMP DP  RH WIND       PRES   REMARKS
LAS VEGAS, NV  MOSUNNY   74  19  12 CALM      30.05F
ELY, NY        SUNNY     59  28  30 NE8       30.16F
ELKO, NV       PTSUNNY   61  33  35 SW12      30.14F
POCATELLO, ID  CLOUDY    56  35  45 W14G23    30.11F
BURLEY, ID     CLOUDY    59  31  34 SW8       30.08F
FORT BRIDGER,    N/A     54  27  35 W15       30.16S
EVANSTON, WY   SUNNY     50  25  37 W12G20    30.15F
ROCK SPRINGS,  SUNNY     51  30  44 W16       30.08F
KEMMERER, WY     N/A     45  28  53 W15G21    30.14F

$$




USA.gov is the U.S. government's official web portal to all federal, state and local government web resources and services.